Weather History for HAAB - October, 2012

Change the Weather History Date:

Tuesday, October 23, 2012

  Actual Average Record
Temperature  
Mean Temperature 61 °F -  
Max Temperature 74 °F 67 °F 75 °F (2013)
Min Temperature 48 °F 52 °F 44 °F (1996)
Degree Days  
Heating Degree Days 4    
Growing Degree Days 11 (Base 50)    
Moisture  
Dew Point 49 °F    
Average Humidity 61    
Maximum Humidity 100    
Minimum Humidity 37    
Precipitation  
Precipitation 0.00 in - - ()
Sea Level Pressure  
Sea Level Pressure 30.20 in    
Wind  
Wind Speed 8 mph ()    
Max Wind Speed 18 mph    
Max Gust Speed -    
Visibility 7.7 miles    
Events      
Averages and records for this station are not official NWS values.
T = Trace of Precipitation, MM = Missing Value Source: Averaged Metar Reports

Daily Weather History Graph

Daily Weather History Graph

Search for Another Location

Airport or City:

Trip Planner

Search our weather history database for the weather conditions in past years. The results will help you decide how hot, cold, wet, or windy it might be!

Date:

Astronomy

Oct. 23, 2012 Rise Set
Actual Time 6:13 AM EAT 6:04 PM EAT
Civil Twilight 5:51 AM EAT 6:26 PM EAT
Nautical Twilight 5:27 AM EAT 6:51 PM EAT
Astronomical Twilight 5:02 AM EAT 7:15 PM EAT
Moon 1:33 PM EAT (10/23) 12:51 AM EAT (10/23)
Length of Visible Light 12h 34m
Length of Day
11h 51m
Waxing Gibbous, 63% of the Moon is Illuminated
Oct 23
Waxing Gibbous
Oct 29
Full
Nov 7
Last Quarter
Nov 14
New
Nov 20
First Quarter

Hourly Weather History & Observations

Time (EAT) Temp. Dew Point Humidity Pressure Visibility Wind Dir Wind Speed Gust Speed Precip Events Conditions
12:00 AM 48.2 °F 48.2 °F 100% 30.27 in - ESE 5.8 mph - N/A   Unknown
2:00 AM 55.4 °F 39.2 °F 54% 30.24 in - North 3.5 mph - N/A   Clear
3:00 AM 55.4 °F 41.0 °F 58% 30.24 in - NNW 4.6 mph - N/A   Unknown
4:00 AM 53.6 °F 39.2 °F 58% 30.24 in - North 4.6 mph - N/A   Unknown
5:00 AM 53.6 °F 39.2 °F 58% 30.27 in - NW 2.3 mph - N/A   Unknown
6:00 AM 53.6 °F 35.6 °F 51% 30.27 in 6.2 mi East 9.2 mph - N/A   Partly Cloudy
7:00 AM 53.6 °F 35.6 °F 51% 30.27 in 6.2 mi NW 2.3 mph - N/A   Partly Cloudy
8:00 AM 55.4 °F 48.2 °F 77% 30.30 in 6.2 mi WNW 4.6 mph - N/A   Partly Cloudy
9:00 AM 60 °F 54 °F 74% 29.94 in 12 mi East 8.9 mph - -   Haze
9:00 AM 60.8 °F 53.6 °F 77% 30.33 in 5.0 mi East 9.2 mph - N/A   Haze
10:00 AM 64.4 °F 53.6 °F 68% 30.33 in 6.2 mi SSW 8.1 mph - N/A   Scattered Clouds
11:00 AM 68.0 °F 55.4 °F 64% 30.30 in 6.2 mi East 18.4 mph - N/A   Scattered Clouds
12:00 PM 69.8 °F 55.4 °F 60% 30.27 in 6.2 mi ESE 12.7 mph - N/A   Scattered Clouds
1:00 PM 71.6 °F 55.4 °F 57% 30.24 in 6.2 mi East 15.0 mph - N/A   Mostly Cloudy
2:00 PM 73.4 °F 53.6 °F 50% 30.21 in 6.2 mi ESE 18.4 mph - N/A   Partly Cloudy
3:00 PM 74 °F 53 °F 37% 29.61 in 19 mi ESE 15.7 mph - -   Partly Cloudy
3:00 PM 73.4 °F 53.6 °F 50% 30.21 in 6.2 mi ESE 16.1 mph - N/A   Scattered Clouds
4:00 PM 73.4 °F 51.8 °F 47% 30.18 in 6.2 mi East 18.4 mph - N/A   Scattered Clouds
5:00 PM 71.6 °F 51.8 °F 50% 30.21 in 6.2 mi East 13.8 mph - N/A   Partly Cloudy
6:00 PM 68.0 °F 48.2 °F 49% 30.21 in 6.2 mi ESE 13.8 mph - N/A   Partly Cloudy
7:00 PM 64.4 °F 51.8 °F 64% 30.24 in 6.2 mi East 9.2 mph - N/A   Partly Cloudy
8:00 PM 62.6 °F 50.0 °F 63% 30.24 in 6.2 mi East 11.5 mph - N/A   Partly Cloudy
9:00 PM 61 °F 53 °F 66% 29.87 in 19 mi East 8.9 mph - -   Scattered Clouds
9:00 PM 59.0 °F 51.8 °F 77% 30.27 in 6.2 mi East 9.2 mph - N/A   Partly Cloudy
11:00 PM 57.2 °F 50.0 °F 77% 30.30 in 6.2 mi SE 6.9 mph - N/A   Partly Cloudy